Location: Peterborough
(44.3091°N, 78.3197°W)
Time: 03:54:14
(UTC-04:00)

Tiros 1 despin weight - Pass Details

Date: 28 March 2023
Orbit: 586 x 632 km, 48.2° (Epoch: 08 June)

Event Time Altitude Azimuth Distance (km) Brightness Sun altitude
Rises 19:13:22 0° 191° (S) 2,794 ? 3.1°
Reaches altitude 10° 19:16:37 10° 165° (SSE) 1,898 ? 2.5°
Maximum altitude 19:18:50 14° 134° (SE) 1,666 ? 2.1°
Drops below altitude 10° 19:21:03 10° 103° (ESE) 1,905 ? 1.7°
Sets 19:24:19 0° 78° (ENE) 2,814 ? 1.2°
